Time,TemperatureF,DewpointF,PressureIn,WindDirection,WindDirectionDegrees,WindSpeedMPH,WindSpeedGustMPH,Humidity,HourlyPrecipIn,Conditions,Clouds,dailyrainin,SoftwareType,DateUTC
2013-10-13 01:12:00,54.3,48.3,30.23,NE,43,3.0,3.0,80,0.00,,CLR,0.00,VWS V14.01,2013-10-13 05:12:00,
2013-10-13 01:17:00,54.7,48.3,30.23,NE,51,1.0,4.0,79,0.00,,CLR,0.00,VWS V14.01,2013-10-13 05:17:00,
2013-10-13 01:22:00,54.9,48.5,30.24,NE,42,1.0,4.0,79,0.00,,CLR,0.00,VWS V14.01,2013-10-13 05:22:00,
2013-10-13 01:27:00,55.1,48.7,30.24,East,84,1.0,4.0,79,0.00,,CLR,0.00,VWS V14.01,2013-10-13 05:27:00,
2013-10-13 01:32:00,55.1,48.7,30.24,NE,41,3.0,3.0,79,0.00,,OVC060,0.00,VWS V14.01,2013-10-13 05:32:00,
2013-10-13 01:37:00,55.1,48.7,30.24,NE,43,0.0,3.0,79,0.00,,OVC060,0.00,VWS V14.01,2013-10-13 05:37:00,
2013-10-13 01:42:00,55.0,48.6,30.24,ENE,60,1.0,3.0,79,0.00,,OVC060,0.00,VWS V14.01,2013-10-13 05:42:00,
2013-10-13 01:47:00,54.8,48.4,30.24,NE,41,1.0,3.0,79,0.00,,OVC060,0.00,VWS V14.01,2013-10-13 05:47:00,
2013-10-13 01:52:00,54.7,48.7,30.24,East,94,1.0,3.0,80,0.00,,OVC060,0.00,VWS V14.01,2013-10-13 05:52:00,
2013-10-13 01:57:00,54.8,48.8,30.24,East,95,0.0,3.0,80,0.00,,OVC060,0.00,VWS V14.01,2013-10-13 05:57:00,
2013-10-13 02:02:00,55.0,49.0,30.24,East,95,0.0,1.0,80,0.00,,OVC027,0.00,VWS V14.01,2013-10-13 06:02:00,
2013-10-13 02:07:00,55.1,49.0,30.24,East,95,0.0,1.0,80,0.00,,OVC027,0.00,VWS V14.01,2013-10-13 06:07:00,
2013-10-13 02:12:00,55.2,49.2,30.24,East,95,0.0,1.0,80,0.00,,OVC027,0.00,VWS V14.01,2013-10-13 06:12:00,
2013-10-13 02:17:00,55.3,49.2,30.24,ESE,110,0.0,1.0,80,0.00,,OVC027,0.00,VWS V14.01,2013-10-13 06:17:00,
2013-10-13 02:22:00,55.3,49.2,30.24,East,82,0.0,1.0,80,0.00,,OVC027,0.00,VWS V14.01,2013-10-13 06:22:00,
2013-10-13 02:27:00,55.4,49.3,30.24,North,9,0.0,1.0,80,0.00,,OVC027,0.00,VWS V14.01,2013-10-13 06:27:00,
2013-10-13 02:32:00,55.5,49.4,30.23,North,9,0.0,0.0,80,0.00,,OVC027,0.00,VWS V14.01,2013-10-13 06:32:00,
2013-10-13 02:37:00,55.5,49.4,30.24,NNE,14,0.0,0.0,80,0.00,,OVC027,0.00,VWS V14.01,2013-10-13 06:37:00,
2013-10-13 02:42:00,55.5,49.4,30.23,NNE,30,0.0,0.0,80,0.00,,OVC027,0.00,VWS V14.01,2013-10-13 06:42:00,
2013-10-13 02:47:00,55.4,49.3,30.23,NNE,27,0.0,0.0,80,0.00,,OVC027,0.00,VWS V14.01,2013-10-13 06:47:00,
2013-10-13 02:52:00,55.3,49.6,30.23,NNE,29,2.0,3.0,81,0.00,,OVC027,0.00,VWS V14.01,2013-10-13 06:52:00,
2013-10-13 02:57:00,55.4,49.3,30.23,NE,40,1.0,4.0,80,0.00,,OVC027,0.00,VWS V14.01,2013-10-13 06:57:00,
2013-10-13 03:02:00,55.4,49.7,30.23,NE,39,0.0,0.0,81,0.00,,OVC029,0.00,VWS V14.01,2013-10-13 07:02:00,
2013-10-13 03:07:00,55.5,49.8,30.23,NE,38,1.0,2.0,81,0.00,,OVC029,0.00,VWS V14.01,2013-10-13 07:07:00,
2013-10-13 03:12:00,55.5,49.8,30.23,East,93,0.0,2.0,81,0.00,,OVC029,0.00,VWS V14.01,2013-10-13 07:12:00,
2013-10-13 03:17:00,55.4,50.0,30.23,East,98,0.0,3.0,82,0.00,,OVC029,0.00,VWS V14.01,2013-10-13 07:17:00,
2013-10-13 03:22:00,55.3,49.9,30.23,NE,44,1.0,3.0,82,0.00,,OVC029,0.00,VWS V14.01,2013-10-13 07:22:00,
2013-10-13 03:27:00,55.3,49.9,30.23,NE,53,0.0,3.0,82,0.00,,OVC029,0.00,VWS V14.01,2013-10-13 07:27:00,
2013-10-13 03:32:00,55.3,49.9,30.23,NE,36,0.0,2.0,82,0.00,,OVC036,0.00,VWS V14.01,2013-10-13 07:32:00,
2013-10-13 03:37:00,55.2,50.1,30.23,NE,53,0.0,2.0,83,0.00,,OVC036,0.00,VWS V14.01,2013-10-13 07:37:00,
2013-10-13 03:42:00,55.3,50.2,30.23,ENE,58,0.0,2.0,83,0.00,,OVC036,0.00,VWS V14.01,2013-10-13 07:42:00,
2013-10-13 03:47:00,55.3,50.2,30.23,ENE,58,0.0,2.0,83,0.00,,OVC036,0.00,VWS V14.01,2013-10-13 07:47:00,
2013-10-13 03:52:00,55.3,50.6,30.23,East,97,0.0,2.0,84,0.00,,OVC036,0.00,VWS V14.01,2013-10-13 07:52:00,
2013-10-13 03:57:00,55.4,50.7,30.23,NNE,31,0.0,2.0,84,0.00,,OVC036,0.00,VWS V14.01,2013-10-13 07:57:00,
2013-10-13 04:02:00,55.4,50.7,30.23,NNE,32,0.0,0.0,84,0.00,,OVC034,0.00,VWS V14.01,2013-10-13 08:02:00,
2013-10-13 04:07:00,55.4,50.7,30.23,NNE,31,0.0,0.0,84,0.00,,OVC034,0.00,VWS V14.01,2013-10-13 08:07:00,
2013-10-13 04:12:00,55.5,50.8,30.23,NNE,32,0.0,0.0,84,0.00,,OVC034,0.00,VWS V14.01,2013-10-13 08:12:00,
2013-10-13 04:17:00,55.5,50.8,30.23,NNE,31,0.0,0.0,84,0.00,,OVC034,0.00,VWS V14.01,2013-10-13 08:17:00,
2013-10-13 04:22:00,55.5,51.1,30.23,NNE,31,0.0,0.0,85,0.00,,OVC034,0.00,VWS V14.01,2013-10-13 08:22:00,
2013-10-13 04:27:00,55.5,51.1,30.23,NNE,32,0.0,0.0,85,0.00,,OVC034,0.00,VWS V14.01,2013-10-13 08:27:00,
2013-10-13 04:32:00,55.6,51.5,30.24,NNE,30,0.0,2.0,86,0.00,,OVC034,0.00,VWS V14.01,2013-10-13 08:32:00,
2013-10-13 04:37:00,55.6,51.5,30.24,NNE,30,0.0,2.0,86,0.00,,OVC034,0.00,VWS V14.01,2013-10-13 08:37:00,
2013-10-13 04:42:00,55.7,51.6,30.24,NE,34,0.0,2.0,86,0.00,,OVC034,0.00,VWS V14.01,2013-10-13 08:42:00,
2013-10-13 04:47:00,55.7,51.3,30.24,NE,34,0.0,2.0,85,0.00,,OVC034,0.00,VWS V14.01,2013-10-13 08:47:00,
2013-10-13 04:52:00,55.8,51.7,30.24,NE,34,0.0,2.0,86,0.00,,OVC034,0.00,VWS V14.01,2013-10-13 08:52:00,
2013-10-13 04:57:00,55.9,51.8,30.23,NE,34,0.0,2.0,86,0.00,,OVC034,0.00,VWS V14.01,2013-10-13 08:57:00,
2013-10-13 05:02:00,55.9,51.8,30.23,NE,34,0.0,1.0,86,0.00,,OVC034,0.00,VWS V14.01,2013-10-13 09:02:00,
2013-10-13 05:07:00,56.0,51.9,30.23,ENE,64,0.0,1.0,86,0.00,,OVC034,0.00,VWS V14.01,2013-10-13 09:07:00,
2013-10-13 05:12:00,56.0,51.9,30.23,NE,52,0.0,1.0,86,0.00,,OVC034,0.00,VWS V14.01,2013-10-13 09:12:00,
2013-10-13 05:17:00,56.1,52.0,30.24,NE,53,0.0,1.0,86,0.00,,OVC034,0.00,VWS V14.01,2013-10-13 09:17:00,
2013-10-13 05:22:00,56.2,52.1,30.24,NE,44,0.0,1.0,86,0.00,,OVC034,0.00,VWS V14.01,2013-10-13 09:22:00,
2013-10-13 05:27:00,56.3,52.2,30.24,East,82,0.0,1.0,86,0.00,,OVC034,0.00,VWS V14.01,2013-10-13 09:27:00,
2013-10-13 05:32:00,56.5,52.4,30.24,East,82,0.0,0.0,86,0.00,,OVC034,0.00,VWS V14.01,2013-10-13 09:32:00,
2013-10-13 05:37:00,56.7,52.2,30.24,ENE,77,0.0,0.0,85,0.00,,OVC034,0.00,VWS V14.01,2013-10-13 09:37:00,
2013-10-13 05:42:00,56.9,52.4,30.24,ESE,110,0.0,0.0,85,0.00,,OVC034,0.00,VWS V14.01,2013-10-13 09:42:00,
2013-10-13 05:47:00,57.2,52.7,30.24,ESE,122,0.0,0.0,85,0.00,,OVC034,0.00,VWS V14.01,2013-10-13 09:47:00,
2013-10-13 05:52:00,57.4,52.9,30.24,East,82,0.0,0.0,85,0.00,,OVC034,0.00,VWS V14.01,2013-10-13 09:52:00,
2013-10-13 05:57:00,57.7,52.9,30.24,East,86,2.0,5.0,84,0.00,,OVC034,0.00,VWS V14.01,2013-10-13 09:57:00,
2013-10-13 06:02:00,58.2,53.1,30.25,SE,125,2.0,3.0,83,0.00,,OVC032,0.00,VWS V14.01,2013-10-13 10:02:00,
2013-10-13 06:07:00,58.5,53.0,30.25,ESE,105,1.0,3.0,82,0.00,,OVC032,0.00,VWS V14.01,2013-10-13 10:07:00,
2013-10-13 06:12:00,58.7,53.2,30.25,East,98,2.0,4.0,82,0.00,,OVC032,0.00,VWS V14.01,2013-10-13 10:12:00,
2013-10-13 06:17:00,58.7,52.9,30.25,ESE,110,1.0,4.0,81,0.00,,OVC032,0.00,VWS V14.01,2013-10-13 10:17:00,
2013-10-13 06:22:00,58.7,52.9,30.25,ENE,58,0.0,4.0,81,0.00,,OVC032,0.00,VWS V14.01,2013-10-13 10:22:00,
2013-10-13 06:27:00,58.8,53.0,30.26,ENE,58,0.0,4.0,81,0.00,,OVC032,0.00,VWS V14.01,2013-10-13 10:27:00,
2013-10-13 06:32:00,58.8,53.0,30.26,ENE,58,0.0,0.0,81,0.00,,OVC032,0.00,VWS V14.01,2013-10-13 10:32:00,
2013-10-13 06:37:00,58.7,52.9,30.26,ENE,58,0.0,0.0,81,0.00,,OVC032,0.00,VWS V14.01,2013-10-13 10:37:00,
2013-10-13 06:42:00,58.7,53.2,30.26,ENE,58,0.0,0.0,82,0.00,,OVC032,0.00,VWS V14.01,2013-10-13 10:42:00,
2013-10-13 06:47:00,58.7,53.2,30.27,ENE,58,0.0,0.0,82,0.00,,OVC032,0.00,VWS V14.01,2013-10-13 10:47:00,
2013-10-13 06:52:00,58.6,53.5,30.27,SW,222,0.0,0.0,83,0.00,,OVC032,0.00,VWS V14.01,2013-10-13 10:52:00,
2013-10-13 06:57:00,58.5,53.4,30.27,SW,222,0.0,0.0,83,0.00,,OVC032,0.00,VWS V14.01,2013-10-13 10:57:00,
2013-10-13 07:02:00,58.4,53.3,30.27,SW,222,0.0,0.0,83,0.00,,OVC032,0.00,VWS V14.01,2013-10-13 11:02:00,
2013-10-13 07:07:00,58.4,53.3,30.27,ESE,110,0.0,0.0,83,0.00,,OVC032,0.00,VWS V14.01,2013-10-13 11:07:00,
2013-10-13 07:12:00,58.7,53.2,30.27,East,94,1.0,1.0,82,0.00,,OVC032,0.00,VWS V14.01,2013-10-13 11:12:00,
2013-10-13 07:17:00,59.0,53.2,30.27,ESE,115,0.0,2.0,81,0.00,,OVC032,0.00,VWS V14.01,2013-10-13 11:17:00,
2013-10-13 07:22:00,59.2,53.0,30.27,ENE,74,0.0,2.0,80,0.00,,OVC032,0.00,VWS V14.01,2013-10-13 11:22:00,
2013-10-13 07:27:00,59.3,53.1,30.27,East,87,0.0,2.0,80,0.00,,OVC032,0.00,VWS V14.01,2013-10-13 11:27:00,
2013-10-13 07:32:00,59.4,53.2,30.27,East,93,0.0,0.0,80,0.00,,OVC032,0.00,VWS V14.01,2013-10-13 11:32:00,
2013-10-13 07:37:00,59.4,53.2,30.28,East,94,0.0,0.0,80,0.00,,OVC032,0.00,VWS V14.01,2013-10-13 11:37:00,
2013-10-13 07:42:00,59.5,53.0,30.28,East,96,1.0,3.0,79,0.00,,OVC032,0.00,VWS V14.01,2013-10-13 11:42:00,
2013-10-13 07:47:00,59.7,52.8,30.28,East,97,6.0,6.0,78,0.00,,OVC032,0.00,VWS V14.01,2013-10-13 11:47:00,
2013-10-13 07:52:00,59.8,52.6,30.28,East,86,2.0,6.0,77,0.00,,OVC032,0.00,VWS V14.01,2013-10-13 11:52:00,
2013-10-13 07:57:00,59.9,52.7,30.28,East,93,3.0,6.0,77,0.00,,OVC032,0.00,VWS V14.01,2013-10-13 11:57:00,
2013-10-13 08:02:00,60.0,52.8,30.28,East,96,1.0,1.0,77,0.00,,OVC032,0.00,VWS V14.01,2013-10-13 12:02:00,
2013-10-13 08:07:00,60.0,52.4,30.29,East,79,2.0,5.0,76,0.00,,OVC032,0.00,VWS V14.01,2013-10-13 12:07:00,
2013-10-13 08:12:00,60.1,52.5,30.29,ESE,122,1.0,5.0,76,0.00,,OVC032,0.00,VWS V14.01,2013-10-13 12:12:00,
2013-10-13 08:17:00,60.2,52.6,30.29,East,101,4.0,5.0,76,0.00,,OVC032,0.00,VWS V14.01,2013-10-13 12:17:00,
2013-10-13 08:22:00,60.1,52.2,30.29,ESE,105,0.0,8.0,75,0.00,,OVC032,0.00,VWS V14.01,2013-10-13 12:22:00,
2013-10-13 08:27:00,60.1,52.5,30.29,SE,143,2.0,8.0,76,0.00,,OVC032,0.00,VWS V14.01,2013-10-13 12:27:00,
2013-10-13 08:32:00,60.1,52.5,30.30,ESE,113,2.0,4.0,76,0.00,,OVC032,0.00,VWS V14.01,2013-10-13 12:32:00,
2013-10-13 08:37:00,60.1,52.5,30.30,ESE,107,4.0,7.0,76,0.00,,OVC032,0.00,VWS V14.01,2013-10-13 12:37:00,
2013-10-13 08:42:00,60.1,52.2,30.30,ESE,107,1.0,7.0,75,0.00,,OVC032,0.00,VWS V14.01,2013-10-13 12:42:00,
2013-10-13 08:47:00,60.1,52.2,30.30,ESE,104,4.0,7.0,75,0.00,,OVC032,0.00,VWS V14.01,2013-10-13 12:47:00,
2013-10-13 08:52:00,60.1,52.5,30.30,ENE,71,2.0,7.0,76,0.00,,OVC032,0.00,VWS V14.01,2013-10-13 12:52:00,
2013-10-13 08:57:00,60.1,52.5,30.30,East,82,1.0,7.0,76,0.00,,OVC032,0.00,VWS V14.01,2013-10-13 12:57:00,
2013-10-13 09:02:00,60.1,52.2,30.30,ENE,72,4.0,5.0,75,0.00,,OVC032,0.00,VWS V14.01,2013-10-13 13:02:00,
2013-10-13 09:07:00,60.2,52.3,30.30,East,91,5.0,5.0,75,0.00,,OVC032,0.00,VWS V14.01,2013-10-13 13:07:00,
2013-10-13 09:12:00,60.2,52.3,30.30,ESE,111,3.0,6.0,75,0.00,,OVC032,0.00,VWS V14.01,2013-10-13 13:12:00,
2013-10-13 09:17:00,60.2,52.3,30.30,ENE,72,2.0,6.0,75,0.00,,OVC032,0.00,VWS V14.01,2013-10-13 13:17:00,
2013-10-13 09:22:00,60.3,52.3,30.30,ESE,103,3.0,6.0,75,0.00,,OVC032,0.00,VWS V14.01,2013-10-13 13:22:00,
2013-10-13 09:27:00,60.3,52.3,30.30,ESE,107,3.0,7.0,75,0.00,,OVC032,0.00,VWS V14.01,2013-10-13 13:27:00,
2013-10-13 09:32:00,60.5,52.9,30.30,ESE,122,0.0,2.0,76,0.00,,OVC032,0.00,VWS V14.01,2013-10-13 13:32:00,
2013-10-13 09:37:00,60.6,52.3,30.30,ESE,106,1.0,7.0,74,0.00,,OVC032,0.00,VWS V14.01,2013-10-13 13:37:00,
2013-10-13 09:42:00,60.7,52.7,30.31,East,87,1.0,7.0,75,0.00,,OVC032,0.00,VWS V14.01,2013-10-13 13:42:00,
2013-10-13 09:47:00,60.8,52.5,30.31,NE,42,1.0,7.0,74,0.00,,OVC032,0.00,VWS V14.01,2013-10-13 13:47:00,
2013-10-13 09:52:00,60.9,52.6,30.31,East,87,1.0,7.0,74,0.00,,OVC032,0.00,VWS V14.01,2013-10-13 13:52:00,
2013-10-13 09:57:00,61.0,51.9,30.31,East,82,1.0,7.0,72,0.00,,OVC032,0.00,VWS V14.01,2013-10-13 13:57:00,
2013-10-13 10:01:00,61.3,52.2,30.31,ESE,108,0.0,4.0,72,0.00,,OVC032,0.00,VWS V14.01,2013-10-13 14:01:00,
2013-10-13 10:06:00,61.6,52.1,30.31,ESE,122,2.0,6.0,71,0.00,,OVC032,0.00,VWS V14.01,2013-10-13 14:06:00,
2013-10-13 10:11:00,61.9,52.4,30.31,East,101,5.0,6.0,71,0.00,,OVC032,0.00,VWS V14.01,2013-10-13 14:11:00,
2013-10-13 10:16:00,62.1,52.2,30.31,East,90,3.0,7.0,70,0.00,,OVC032,0.00,VWS V14.01,2013-10-13 14:16:00,
2013-10-13 10:21:00,62.4,52.1,30.31,ENE,67,2.0,7.0,69,0.00,,OVC032,0.00,VWS V14.01,2013-10-13 14:21:00,
2013-10-13 10:26:00,62.9,51.8,30.31,NE,43,4.0,7.0,67,0.00,,OVC032,0.00,VWS V14.01,2013-10-13 14:26:00,
2013-10-13 10:31:00,63.3,52.6,30.31,SE,130,0.0,3.0,68,0.00,,OVC032,0.00,VWS V14.01,2013-10-13 14:31:00,
2013-10-13 10:36:00,63.6,52.0,30.31,South,172,2.0,8.0,66,0.00,,OVC032,0.00,VWS V14.01,2013-10-13 14:36:00,
2013-10-13 10:41:00,63.6,51.2,30.31,East,82,2.0,8.0,64,0.00,,OVC032,0.00,VWS V14.01,2013-10-13 14:41:00,
2013-10-13 10:46:00,63.2,51.2,30.31,ESE,104,2.0,8.0,65,0.00,,OVC032,0.00,VWS V14.01,2013-10-13 14:46:00,
2013-10-13 10:51:00,63.2,52.1,30.31,ESE,113,1.0,8.0,67,0.00,,OVC032,0.00,VWS V14.01,2013-10-13 14:51:00,
2013-10-13 10:56:00,63.2,51.7,30.31,NE,45,1.0,8.0,66,0.00,,OVC032,0.00,VWS V14.01,2013-10-13 14:56:00,
2013-10-13 11:02:00,63.3,51.3,30.31,SW,233,0.0,3.0,65,0.00,,OVC036,0.00,VWS V14.01,2013-10-13 15:02:00,
2013-10-13 11:07:00,63.2,50.4,30.31,NE,55,1.0,6.0,63,0.00,,OVC036,0.00,VWS V14.01,2013-10-13 15:07:00,
2013-10-13 11:12:00,63.1,50.7,30.31,East,82,5.0,6.0,64,0.00,,OVC036,0.00,VWS V14.01,2013-10-13 15:12:00,
2013-10-13 11:17:00,62.9,50.1,30.31,East,92,2.0,6.0,63,0.00,,OVC036,0.00,VWS V14.01,2013-10-13 15:17:00,
2013-10-13 11:21:00,62.9,50.1,30.31,ESE,107,1.0,6.0,63,0.00,,OVC036,0.00,VWS V14.01,2013-10-13 15:21:00,
2013-10-13 11:26:00,63.0,50.7,30.31,East,90,5.0,6.0,64,0.00,,OVC036,0.00,VWS V14.01,2013-10-13 15:26:00,
2013-10-13 11:31:00,62.9,50.1,30.31,East,90,1.0,5.0,63,0.00,,OVC036,0.00,VWS V14.01,2013-10-13 15:31:00,
2013-10-13 11:36:00,62.8,50.5,30.31,SSE,167,0.0,5.0,64,0.00,,OVC036,0.00,VWS V14.01,2013-10-13 15:36:00,
2013-10-13 11:41:00,62.8,50.5,30.31,ESE,118,3.0,7.0,64,0.00,,OVC036,0.00,VWS V14.01,2013-10-13 15:41:00,
2013-10-13 11:46:00,62.8,50.5,30.31,SW,226,2.0,7.0,64,0.00,,OVC036,0.00,VWS V14.01,2013-10-13 15:46:00,
2013-10-13 11:51:00,62.8,50.9,30.31,West,259,2.0,7.0,65,0.00,,OVC036,0.00,VWS V14.01,2013-10-13 15:51:00,
2013-10-13 11:56:00,63.1,50.7,30.31,SE,142,0.0,7.0,64,0.00,,OVC036,0.00,VWS V14.01,2013-10-13 15:56:00,
2013-10-13 12:01:00,63.3,50.9,30.31,East,87,0.0,2.0,64,0.00,,OVC036,0.00,VWS V14.01,2013-10-13 16:01:00,
2013-10-13 12:06:00,63.6,50.8,30.31,SSW,203,1.0,3.0,63,0.00,,OVC036,0.00,VWS V14.01,2013-10-13 16:06:00,
2013-10-13 12:11:00,63.9,51.1,30.31,NE,54,0.0,3.0,63,0.00,,OVC036,0.00,VWS V14.01,2013-10-13 16:11:00,
2013-10-13 12:16:00,64.2,50.9,30.31,East,98,2.0,4.0,62,0.00,,OVC036,0.00,VWS V14.01,2013-10-13 16:16:00,
2013-10-13 12:21:00,64.6,50.9,30.31,ESE,107,0.0,4.0,61,0.00,,OVC036,0.00,VWS V14.01,2013-10-13 16:21:00,
2013-10-13 12:26:00,65.0,51.2,30.30,SW,232,0.0,4.0,61,0.00,,OVC036,0.00,VWS V14.01,2013-10-13 16:26:00,
2013-10-13 12:31:00,65.4,51.6,30.30,WSW,248,0.0,2.0,61,0.00,,OVC036,0.00,VWS V14.01,2013-10-13 16:31:00,
2013-10-13 12:36:00,65.3,51.1,30.30,SW,219,1.0,4.0,60,0.00,,OVC036,0.00,VWS V14.01,2013-10-13 16:36:00,
2013-10-13 12:41:00,65.4,51.6,30.30,East,82,1.0,4.0,61,0.00,,OVC036,0.00,VWS V14.01,2013-10-13 16:41:00,
2013-10-13 12:46:00,65.6,50.4,30.30,SE,139,2.0,4.0,58,0.00,,OVC036,0.00,VWS V14.01,2013-10-13 16:46:00,
2013-10-13 12:51:00,65.4,50.7,30.29,WSW,239,0.0,4.0,59,0.00,,OVC036,0.00,VWS V14.01,2013-10-13 16:51:00,
2013-10-13 12:56:00,65.6,50.4,30.29,East,94,0.0,4.0,58,0.00,,OVC036,0.00,VWS V14.01,2013-10-13 16:56:00,
2013-10-13 13:01:00,66.0,51.3,30.29,East,97,0.0,2.0,59,0.00,,OVC065,0.00,VWS V14.01,2013-10-13 17:01:00,
2013-10-13 13:06:00,66.0,51.3,30.29,ENE,60,1.0,2.0,59,0.00,,OVC065,0.00,VWS V14.01,2013-10-13 17:06:00,
2013-10-13 13:11:00,66.0,50.8,30.29,NE,41,1.0,4.0,58,0.00,,OVC065,0.00,VWS V14.01,2013-10-13 17:11:00,
2013-10-13 13:16:00,65.9,51.6,30.29,SW,232,0.0,5.0,60,0.00,,OVC065,0.00,VWS V14.01,2013-10-13 17:16:00,
2013-10-13 13:21:00,65.9,50.7,30.29,East,90,1.0,5.0,58,0.00,,OVC065,0.00,VWS V14.01,2013-10-13 17:21:00,
2013-10-13 13:26:00,65.8,50.2,30.28,ESE,107,1.0,5.0,57,0.00,,OVC065,0.00,VWS V14.01,2013-10-13 17:26:00,
2013-10-13 13:31:00,65.7,50.5,30.28,ESE,108,0.0,2.0,58,0.00,,OVC065,0.00,VWS V14.01,2013-10-13 17:31:00,
2013-10-13 13:36:00,65.7,50.1,30.28,ENE,74,1.0,5.0,57,0.00,,OVC065,0.00,VWS V14.01,2013-10-13 17:36:00,
2013-10-13 13:41:00,65.8,50.6,30.28,ENE,70,1.0,5.0,58,0.00,,OVC065,0.00,VWS V14.01,2013-10-13 17:41:00,
2013-10-13 13:46:00,66.3,50.6,30.28,South,184,0.0,5.0,57,0.00,,OVC065,0.00,VWS V14.01,2013-10-13 17:46:00,
2013-10-13 13:51:00,66.3,51.1,30.28,ESE,103,0.0,5.0,58,0.00,,OVC065,0.00,VWS V14.01,2013-10-13 17:51:00,
2013-10-13 13:56:00,66.4,50.7,30.28,ESE,103,0.0,5.0,57,0.00,,OVC065,0.00,VWS V14.01,2013-10-13 17:56:00,
2013-10-13 14:01:00,66.5,51.8,30.28,SW,224,1.0,1.0,59,0.00,,OVC040,0.00,VWS V14.01,2013-10-13 18:01:00,
2013-10-13 14:06:00,66.6,50.9,30.27,East,89,1.0,5.0,57,0.00,,OVC040,0.00,VWS V14.01,2013-10-13 18:06:00,
2013-10-13 14:11:00,66.4,50.7,30.27,East,97,3.0,5.0,57,0.00,,OVC040,0.00,VWS V14.01,2013-10-13 18:11:00,
2013-10-13 14:16:00,66.3,50.6,30.27,East,86,2.0,5.0,57,0.00,,OVC040,0.00,VWS V14.01,2013-10-13 18:16:00,
2013-10-13 14:21:00,66.7,51.5,30.27,SE,128,3.0,5.0,58,0.00,,OVC040,0.00,VWS V14.01,2013-10-13 18:21:00,
2013-10-13 14:26:00,67.2,51.5,30.27,ESE,104,1.0,5.0,57,0.00,,OVC040,0.00,VWS V14.01,2013-10-13 18:26:00,
2013-10-13 14:31:00,67.3,51.6,30.27,NE,34,2.0,4.0,57,0.00,,OVC040,0.00,VWS V14.01,2013-10-13 18:31:00,
2013-10-13 14:36:00,67.8,51.5,30.27,ENE,74,1.0,4.0,56,0.00,,OVC040,0.00,VWS V14.01,2013-10-13 18:36:00,
2013-10-13 14:41:00,68.0,52.2,30.27,WSW,239,0.0,4.0,57,0.00,,OVC040,0.00,VWS V14.01,2013-10-13 18:41:00,
2013-10-13 14:46:00,68.5,51.7,30.27,SSE,155,0.0,4.0,55,0.00,,OVC040,0.00,VWS V14.01,2013-10-13 18:46:00,
2013-10-13 14:51:00,68.8,52.0,30.27,East,83,1.0,5.0,55,0.00,,OVC040,0.00,VWS V14.01,2013-10-13 18:51:00,
2013-10-13 14:56:00,68.7,51.9,30.26,SW,225,3.0,5.0,55,0.00,,OVC040,0.00,VWS V14.01,2013-10-13 18:56:00,
2013-10-13 15:01:00,68.6,51.8,30.27,ESE,112,1.0,1.0,55,0.00,,OVC044,0.00,VWS V14.01,2013-10-13 19:01:00,
2013-10-13 15:06:00,68.4,51.6,30.26,ENE,69,0.0,3.0,55,0.00,,OVC044,0.00,VWS V14.01,2013-10-13 19:06:00,
2013-10-13 15:11:00,68.4,51.6,30.26,ENE,70,0.0,3.0,55,0.00,,OVC044,0.00,VWS V14.01,2013-10-13 19:11:00,
2013-10-13 15:16:00,68.8,52.0,30.26,WNW,295,1.0,4.0,55,0.00,,OVC044,0.00,VWS V14.01,2013-10-13 19:16:00,
2013-10-13 15:21:00,68.7,51.9,30.26,SW,225,0.0,4.0,55,0.00,,OVC044,0.00,VWS V14.01,2013-10-13 19:21:00,
2013-10-13 15:26:00,68.5,51.7,30.26,SW,225,0.0,4.0,55,0.00,,OVC044,0.00,VWS V14.01,2013-10-13 19:26:00,
2013-10-13 15:31:00,68.4,52.1,30.26,West,273,1.0,1.0,56,0.00,,OVC044,0.00,VWS V14.01,2013-10-13 19:31:00,
2013-10-13 15:36:00,68.7,52.4,30.26,WNW,293,2.0,3.0,56,0.00,,OVC044,0.00,VWS V14.01,2013-10-13 19:36:00,
2013-10-13 15:41:00,68.7,52.4,30.26,West,269,0.0,3.0,56,0.00,,OVC044,0.00,VWS V14.01,2013-10-13 19:41:00,
2013-10-13 15:46:00,68.7,52.4,30.25,SW,232,1.0,3.0,56,0.00,,OVC044,0.00,VWS V14.01,2013-10-13 19:46:00,
2013-10-13 15:51:00,68.8,52.5,30.25,SW,226,0.0,3.0,56,0.00,,OVC044,0.00,VWS V14.01,2013-10-13 19:51:00,
2013-10-13 15:56:00,68.8,52.5,30.25,West,262,0.0,3.0,56,0.00,,OVC044,0.00,VWS V14.01,2013-10-13 19:56:00,
2013-10-13 16:01:00,68.9,52.1,30.25,East,98,0.0,1.0,55,0.00,,OVC060,0.00,VWS V14.01,2013-10-13 20:01:00,
2013-10-13 16:06:00,68.8,52.5,30.26,SW,229,1.0,3.0,56,0.00,,OVC060,0.00,VWS V14.01,2013-10-13 20:06:00,
2013-10-13 16:11:00,68.8,52.5,30.26,SW,215,1.0,3.0,56,0.00,,OVC060,0.00,VWS V14.01,2013-10-13 20:11:00,
2013-10-13 16:16:00,68.7,52.9,30.26,SW,219,0.0,3.0,57,0.00,,OVC060,0.00,VWS V14.01,2013-10-13 20:16:00,
2013-10-13 16:21:00,68.7,52.4,30.26,ESE,115,0.0,3.0,56,0.00,,OVC060,0.00,VWS V14.01,2013-10-13 20:21:00,
2013-10-13 16:26:00,68.4,51.6,30.25,SW,226,1.0,3.0,55,0.00,,OVC060,0.00,VWS V14.01,2013-10-13 20:26:00,
2013-10-13 16:31:00,68.0,51.7,30.26,SW,233,0.0,1.0,56,0.00,,OVC060,0.00,VWS V14.01,2013-10-13 20:31:00,
2013-10-13 16:36:00,67.9,51.2,30.26,SW,223,0.0,2.0,55,0.00,,OVC060,0.00,VWS V14.01,2013-10-13 20:36:00,
2013-10-13 16:41:00,67.9,51.2,30.26,West,262,0.0,2.0,55,0.00,,OVC060,0.00,VWS V14.01,2013-10-13 20:41:00,
2013-10-13 16:46:00,67.7,51.5,30.26,SW,229,0.0,2.0,56,0.00,,OVC060,0.00,VWS V14.01,2013-10-13 20:46:00,
2013-10-13 16:51:00,67.7,51.5,30.26,SW,228,0.0,2.0,56,0.00,,OVC060,0.00,VWS V14.01,2013-10-13 20:51:00,
2013-10-13 16:56:00,67.7,51.9,30.26,SW,228,0.0,2.0,57,0.00,,OVC060,0.00,VWS V14.01,2013-10-13 20:56:00,
2013-10-13 17:01:00,67.6,51.4,30.26,SW,224,1.0,2.0,56,0.00,,OVC060,0.00,VWS V14.01,2013-10-13 21:01:00,
2013-10-13 17:06:00,67.5,51.8,30.26,SW,225,0.0,2.0,57,0.00,,OVC060,0.00,VWS V14.01,2013-10-13 21:06:00,
2013-10-13 17:11:00,67.5,51.8,30.26,SW,225,0.0,2.0,57,0.00,,OVC060,0.00,VWS V14.01,2013-10-13 21:11:00,
2013-10-13 17:16:00,67.6,51.4,30.26,SW,225,0.0,2.0,56,0.00,,OVC060,0.00,VWS V14.01,2013-10-13 21:16:00,
2013-10-13 17:21:00,67.5,51.3,30.26,SW,225,0.0,2.0,56,0.00,,OVC060,0.00,VWS V14.01,2013-10-13 21:21:00,
2013-10-13 17:26:00,67.4,51.2,30.26,ENE,77,0.0,2.0,56,0.00,,OVC060,0.00,VWS V14.01,2013-10-13 21:26:00,
2013-10-13 17:31:00,67.3,51.1,30.26,East,101,0.0,0.0,56,0.00,,OVC060,0.00,VWS V14.01,2013-10-13 21:31:00,
2013-10-13 17:36:00,67.1,51.4,30.26,East,101,0.0,1.0,57,0.00,,OVC060,0.00,VWS V14.01,2013-10-13 21:36:00,
2013-10-13 17:41:00,67.0,51.8,30.25,SSW,201,0.0,1.0,58,0.00,,OVC060,0.00,VWS V14.01,2013-10-13 21:41:00,
2013-10-13 17:46:00,67.0,51.8,30.26,SSW,200,0.0,1.0,58,0.00,,OVC060,0.00,VWS V14.01,2013-10-13 21:46:00,
2013-10-13 17:51:00,66.9,51.7,30.25,SW,229,0.0,1.0,58,0.00,,OVC060,0.00,VWS V14.01,2013-10-13 21:51:00,
2013-10-13 17:56:00,66.8,52.0,30.25,SW,229,0.0,1.0,59,0.00,,OVC060,0.00,VWS V14.01,2013-10-13 21:56:00,
2013-10-13 18:01:00,66.8,52.0,30.26,SW,229,0.0,0.0,59,0.00,,OVC060,0.00,VWS V14.01,2013-10-13 22:01:00,
2013-10-13 18:06:00,66.7,51.9,30.26,SW,229,0.0,0.0,59,0.00,,OVC060,0.00,VWS V14.01,2013-10-13 22:06:00,
2013-10-13 18:11:00,66.6,51.8,30.26,SW,229,0.0,0.0,59,0.00,,OVC060,0.00,VWS V14.01,2013-10-13 22:11:00,
2013-10-13 18:16:00,66.5,53.1,30.26,SW,229,0.0,0.0,62,0.00,,OVC060,0.00,VWS V14.01,2013-10-13 22:16:00,
2013-10-13 18:21:00,66.2,54.1,30.26,SW,229,0.0,0.0,65,0.00,,OVC060,0.00,VWS V14.01,2013-10-13 22:21:00,
2013-10-13 18:26:00,65.9,54.2,30.26,SW,229,0.0,0.0,66,0.00,,OVC060,0.00,VWS V14.01,2013-10-13 22:26:00,
2013-10-13 18:31:00,65.7,54.5,30.26,SW,229,0.0,0.0,67,0.00,,OVC060,0.00,VWS V14.01,2013-10-13 22:31:00,
2013-10-13 18:36:00,65.5,53.8,30.26,SW,229,0.0,0.0,66,0.00,,OVC060,0.00,VWS V14.01,2013-10-13 22:36:00,
2013-10-13 18:41:00,65.3,54.5,30.26,SW,229,0.0,0.0,68,0.00,,OVC060,0.00,VWS V14.01,2013-10-13 22:41:00,
2013-10-13 18:46:00,65.2,54.4,30.26,SW,229,0.0,0.0,68,0.00,,OVC060,0.00,VWS V14.01,2013-10-13 22:46:00,
2013-10-13 18:51:00,64.9,54.5,30.26,SW,229,0.0,0.0,69,0.00,,OVC060,0.00,VWS V14.01,2013-10-13 22:51:00,
2013-10-13 18:56:00,64.7,54.3,30.26,SW,229,0.0,0.0,69,0.00,,OVC060,0.00,VWS V14.01,2013-10-13 22:56:00,
2013-10-13 19:01:00,64.6,54.2,30.27,SW,229,0.0,0.0,69,0.00,,OVC060,0.00,VWS V14.01,2013-10-13 23:01:00,
2013-10-13 19:06:00,64.5,54.5,30.26,SW,229,0.0,0.0,70,0.00,,OVC060,0.00,VWS V14.01,2013-10-13 23:06:00,
2013-10-13 19:11:00,64.4,54.4,30.27,SW,229,0.0,0.0,70,0.00,,OVC060,0.00,VWS V14.01,2013-10-13 23:11:00,
2013-10-13 19:16:00,64.3,53.9,30.27,SW,229,0.0,0.0,69,0.00,,OVC060,0.00,VWS V14.01,2013-10-13 23:16:00,
2013-10-13 19:21:00,64.2,54.2,30.27,SW,229,0.0,0.0,70,0.00,,OVC060,0.00,VWS V14.01,2013-10-13 23:21:00,
2013-10-13 19:26:00,64.1,54.5,30.27,SW,229,0.0,0.0,71,0.00,,OVC060,0.00,VWS V14.01,2013-10-13 23:26:00,
2013-10-13 19:31:00,63.9,53.9,30.27,SW,229,0.0,0.0,70,0.00,,OVC060,0.00,VWS V14.01,2013-10-13 23:31:00,
2013-10-13 19:36:00,63.9,53.9,30.27,SW,229,0.0,0.0,70,0.00,,OVC060,0.00,VWS V14.01,2013-10-13 23:36:00,
2013-10-13 19:41:00,63.9,54.3,30.27,SW,229,0.0,0.0,71,0.00,,OVC060,0.00,VWS V14.01,2013-10-13 23:41:00,
2013-10-13 19:46:00,63.8,54.2,30.27,SW,229,0.0,0.0,71,0.00,,OVC060,0.00,VWS V14.01,2013-10-13 23:46:00,
2013-10-13 19:51:00,63.7,54.1,30.27,SW,229,0.0,0.0,71,0.00,,OVC060,0.00,VWS V14.01,2013-10-13 23:51:00,
2013-10-13 19:56:00,63.5,54.3,30.27,SW,229,0.0,0.0,72,0.00,,OVC060,0.00,VWS V14.01,2013-10-13 23:56:00,
2013-10-13 20:01:00,63.3,54.1,30.28,SW,229,0.0,0.0,72,0.00,,OVC060,0.00,VWS V14.01,2013-10-14 00:01:00,
2013-10-13 20:06:00,63.1,54.7,30.28,SW,229,0.0,0.0,74,0.00,,OVC060,0.00,VWS V14.01,2013-10-14 00:06:00,
2013-10-13 20:11:00,62.8,55.1,30.28,SW,229,0.0,0.0,76,0.00,,OVC060,0.00,VWS V14.01,2013-10-14 00:11:00,
2013-10-13 20:16:00,62.5,54.8,30.28,SW,229,0.0,0.0,76,0.00,,OVC060,0.00,VWS V14.01,2013-10-14 00:16:00,
2013-10-13 20:21:00,62.2,54.9,30.28,SW,229,0.0,0.0,77,0.00,,OVC060,0.00,VWS V14.01,2013-10-14 00:21:00,
2013-10-13 20:26:00,61.9,55.0,30.28,SW,229,0.0,0.0,78,0.00,,OVC060,0.00,VWS V14.01,2013-10-14 00:26:00,
2013-10-13 20:31:00,61.8,54.9,30.28,SW,229,0.0,0.0,78,0.00,,OVC060,0.00,VWS V14.01,2013-10-14 00:31:00,
2013-10-13 20:36:00,61.6,55.0,30.28,SW,229,0.0,0.0,79,0.00,,OVC060,0.00,VWS V14.01,2013-10-14 00:36:00,
2013-10-13 20:41:00,61.4,54.5,30.29,SW,229,0.0,0.0,78,0.00,,OVC060,0.00,VWS V14.01,2013-10-14 00:41:00,
2013-10-13 20:46:00,61.2,53.9,30.28,SW,229,0.0,0.0,77,0.00,,OVC060,0.00,VWS V14.01,2013-10-14 00:46:00,
2013-10-13 20:51:00,61.1,53.8,30.28,SSW,197,0.0,0.0,77,0.00,,OVC060,0.00,VWS V14.01,2013-10-14 00:51:00,
2013-10-13 20:56:00,61.0,53.8,30.29,East,87,0.0,0.0,77,0.00,,OVC060,0.00,VWS V14.01,2013-10-14 00:56:00,
2013-10-13 21:01:00,61.0,53.8,30.29,East,84,0.0,0.0,77,0.00,,CLR,0.00,VWS V14.01,2013-10-14 01:01:00,
2013-10-13 21:06:00,61.1,53.5,30.28,East,96,0.0,0.0,76,0.00,,CLR,0.00,VWS V14.01,2013-10-14 01:06:00,
2013-10-13 21:11:00,61.0,53.4,30.28,SSE,149,0.0,0.0,76,0.00,,CLR,0.00,VWS V14.01,2013-10-14 01:11:00,
2013-10-13 21:16:00,60.7,53.5,30.29,ESE,108,0.0,0.0,77,0.00,,CLR,0.00,VWS V14.01,2013-10-14 01:16:00,
2013-10-13 21:21:00,60.4,53.2,30.29,ESE,107,0.0,0.0,77,0.00,,CLR,0.00,VWS V14.01,2013-10-14 01:21:00,
2013-10-13 21:26:00,60.1,53.2,30.29,ESE,107,0.0,0.0,78,0.00,,CLR,0.00,VWS V14.01,2013-10-14 01:26:00,
2013-10-13 21:31:00,59.7,53.2,30.29,ESE,107,0.0,0.0,79,0.00,,CLR,0.00,VWS V14.01,2013-10-14 01:31:00,
2013-10-13 21:36:00,59.5,53.3,30.29,East,90,0.0,0.0,80,0.00,,CLR,0.00,VWS V14.01,2013-10-14 01:36:00,
2013-10-13 21:41:00,59.4,53.2,30.29,ESE,107,0.0,0.0,80,0.00,,CLR,0.00,VWS V14.01,2013-10-14 01:41:00,
2013-10-13 21:46:00,59.2,53.0,30.29,East,101,0.0,0.0,80,0.00,,CLR,0.00,VWS V14.01,2013-10-14 01:46:00,
2013-10-13 21:51:00,59.2,52.7,30.29,East,97,0.0,0.0,79,0.00,,CLR,0.00,VWS V14.01,2013-10-14 01:51:00,
2013-10-13 21:56:00,59.0,52.8,30.29,East,97,0.0,0.0,80,0.00,,CLR,0.00,VWS V14.01,2013-10-14 01:56:00,
2013-10-13 22:00:00,58.8,52.7,30.30,East,97,0.0,0.0,80,0.00,,CLR,0.00,VWS V14.01,2013-10-14 02:00:00,
2013-10-13 22:05:00,58.6,52.8,30.30,SW,228,1.0,1.0,81,0.00,,CLR,0.00,VWS V14.01,2013-10-14 02:05:00,
2013-10-13 22:10:00,58.4,52.6,30.30,SW,229,0.0,1.0,81,0.00,,CLR,0.00,VWS V14.01,2013-10-14 02:10:00,
2013-10-13 22:15:00,58.3,52.5,30.30,SW,228,0.0,1.0,81,0.00,,CLR,0.00,VWS V14.01,2013-10-14 02:15:00,
2013-10-13 22:20:00,58.1,52.6,30.30,SW,228,0.0,1.0,82,0.00,,CLR,0.00,VWS V14.01,2013-10-14 02:20:00,
2013-10-13 22:26:00,58.0,52.5,30.30,SW,228,0.0,1.0,82,0.00,,CLR,0.00,VWS V14.01,2013-10-14 02:26:00,
2013-10-13 22:30:00,57.9,52.8,30.30,SW,228,0.0,0.0,83,0.00,,CLR,0.00,VWS V14.01,2013-10-14 02:30:00,
2013-10-13 22:35:00,57.7,52.6,30.30,SW,229,0.0,0.0,83,0.00,,CLR,0.00,VWS V14.01,2013-10-14 02:35:00,
2013-10-13 22:40:00,57.6,52.5,30.30,SW,229,0.0,1.0,83,0.00,,CLR,0.00,VWS V14.01,2013-10-14 02:40:00,
2013-10-13 22:45:00,57.6,52.5,30.30,SW,228,0.0,1.0,83,0.00,,CLR,0.00,VWS V14.01,2013-10-14 02:45:00,
2013-10-13 22:50:00,57.5,52.4,30.30,SW,228,0.0,1.0,83,0.00,,CLR,0.00,VWS V14.01,2013-10-14 02:50:00,
2013-10-13 22:55:00,57.4,52.3,30.30,SW,228,0.0,1.0,83,0.00,,CLR,0.00,VWS V14.01,2013-10-14 02:55:00,
2013-10-13 23:00:00,57.3,52.5,30.30,SW,228,0.0,0.0,84,0.00,,CLR,0.00,VWS V14.01,2013-10-14 03:00:00,
2013-10-13 23:05:00,57.2,52.4,30.30,East,94,0.0,0.0,84,0.00,,CLR,0.00,VWS V14.01,2013-10-14 03:05:00,
2013-10-13 23:10:00,57.2,52.4,30.30,SW,227,0.0,0.0,84,0.00,,CLR,0.00,VWS V14.01,2013-10-14 03:10:00,
2013-10-13 23:15:00,57.0,52.2,30.30,SW,226,0.0,0.0,84,0.00,,CLR,0.00,VWS V14.01,2013-10-14 03:15:00,
2013-10-13 23:20:00,56.8,52.3,30.30,SW,226,0.0,0.0,85,0.00,,CLR,0.00,VWS V14.01,2013-10-14 03:20:00,
2013-10-13 23:25:00,56.7,52.2,30.30,SW,226,0.0,0.0,85,0.00,,CLR,0.00,VWS V14.01,2013-10-14 03:25:00,
2013-10-13 23:30:00,56.8,52.0,30.30,SSE,167,0.0,0.0,84,0.00,,CLR,0.00,VWS V14.01,2013-10-14 03:30:00,
2013-10-13 23:35:00,56.7,51.9,30.30,South,169,0.0,0.0,84,0.00,,CLR,0.00,VWS V14.01,2013-10-14 03:35:00,
2013-10-13 23:40:00,56.5,51.7,30.30,SSE,160,0.0,0.0,84,0.00,,CLR,0.00,VWS V14.01,2013-10-14 03:40:00,
2013-10-13 23:45:00,56.5,52.0,30.30,SSE,161,0.0,0.0,85,0.00,,CLR,0.00,VWS V14.01,2013-10-14 03:45:00,
2013-10-13 23:50:00,56.4,52.0,30.30,SW,233,0.0,0.0,85,0.00,,CLR,0.00,VWS V14.01,2013-10-14 03:50:00,
2013-10-13 23:55:00,56.3,51.9,30.30,SW,233,0.0,0.0,85,0.00,,CLR,0.00,VWS V14.01,2013-10-14 03:55:00,